South Haven, MI

9:47 AM EST on February 22, 2018 (GMT -0500)
South Haven

Weather History for KLWA - April, 2014

Change the Weather History Date:

Saturday, April 12, 2014

  Actual Average (KBEH) Record (KBEH)
Temperature  
Mean Temperature 56 °F -  
Max Temperature 74 °F 56 °F 82 °F (1971)
Min Temperature 37 °F 33 °F 21 °F (1982)
Degree Days  
Heating Degree Days 10    
Growing Degree Days 6 (Base 50)    
Moisture  
Dew Point 39 °F    
Average Humidity 52    
Maximum Humidity 79    
Minimum Humidity 20    
Precipitation  
Precipitation 0.00 in - - ()
Sea Level Pressure  
Sea Level Pressure 29.91 in    
Wind  
Wind Speed 4 mph (South)    
Max Wind Speed 17 mph    
Max Gust Speed 30 mph    
Visibility 10 miles    
Events Rain    
Averages and records for this station are not official NWS values.
T = Trace of Precipitation, MM = Missing Value Source: NWS Daily Summary

Daily Weather History Graph

Daily Weather History Graph

Search for Another Location

Airport or City:

Trip Planner

Search our weather history database for the weather conditions in past years. The results will help you decide how hot, cold, wet, or windy it might be!

Date:

Astronomy

Apr. 12, 2014 Rise Set
Actual Time 7:08 AM EDT 8:23 PM EDT
Civil Twilight 6:40 AM EDT 8:52 PM EDT
Nautical Twilight 6:05 AM EDT 9:27 PM EDT
Astronomical Twilight 5:28 AM EDT 10:03 PM EDT
Moon 5:58 PM EDT (4/12) 5:38 AM EDT (4/12)
Length of Visible Light 14h 12m
Length of Day
13h 14m
Waxing Gibbous, 93% of the Moon is Illuminated
Apr 12
Waxing Gibbous
Apr 15
Full
Apr 22
Last Quarter
Apr 29
New
May 6
First Quarter

Hourly Weather History & Observations

Time (EDT) Temp. Windchill Dew Point Humidity Pressure Visibility Wind Dir Wind Speed Gust Speed Precip Events Conditions
12:16 AM 40.8 °F - 30.9 °F 68% 30.00 in 10.0 mi Calm Calm - N/A   Clear
12:36 AM 40.8 °F - 30.4 °F 66% 30.00 in 10.0 mi Calm Calm - N/A   Clear
12:55 AM 40.6 °F - 29.3 °F 64% 30.01 in 10.0 mi Calm Calm - N/A   Clear
1:16 AM 41.9 °F - 26.6 °F 55% 30.01 in 10.0 mi Calm Calm - N/A   Clear
1:36 AM 39.0 °F - 31.6 °F 75% 30.01 in 10.0 mi Calm Calm - N/A   Clear
1:55 AM 40.1 °F - 32.0 °F 73% 30.02 in 10.0 mi Calm Calm - N/A   Clear
2:16 AM 41.9 °F - 29.7 °F 62% 30.02 in 10.0 mi Calm Calm - N/A   Clear
2:35 AM 40.6 °F - 29.7 °F 65% 30.02 in 10.0 mi Calm Calm - N/A   Clear
2:56 AM 39.7 °F - 31.3 °F 72% 30.02 in 10.0 mi Calm Calm - N/A   Clear
3:16 AM 39.9 °F - 32.5 °F 75% 30.02 in 10.0 mi Calm Calm - N/A   Clear
3:35 AM 40.5 °F - 32.2 °F 72% 30.02 in 10.0 mi Calm Calm - N/A   Clear
3:56 AM 41.0 °F 39.0 °F 31.6 °F 69% 30.04 in 10.0 mi NW 3.5 mph - N/A   Clear
4:16 AM 42.3 °F - 30.4 °F 63% 30.04 in 10.0 mi Calm Calm - N/A   Clear
4:35 AM 41.0 °F - 31.5 °F 69% 30.04 in 10.0 mi Calm Calm - N/A   Clear
4:56 AM 40.6 °F - 32.0 °F 71% 30.04 in 10.0 mi Calm Calm - N/A   Clear
5:16 AM 39.0 °F - 31.8 °F 75% 30.03 in 10.0 mi Calm Calm - N/A   Clear
5:36 AM 39.7 °F - 31.1 °F 71% 30.04 in 10.0 mi Calm Calm - N/A   Clear
5:56 AM 38.8 °F - 32.0 °F 76% 30.04 in 10.0 mi Calm Calm - N/A   Clear
6:15 AM 37.9 °F - 32.0 °F 79% 30.03 in 10.0 mi Calm Calm - N/A   Clear
6:36 AM 39.4 °F - 32.0 °F 75% 30.02 in 10.0 mi Calm Calm - N/A   Clear
6:55 AM 41.0 °F - 31.1 °F 68% 30.02 in 10.0 mi Calm Calm - N/A   Clear
7:15 AM 42.4 °F - 32.0 °F 67% 30.02 in 10.0 mi Calm Calm - N/A   Clear
7:36 AM 44.1 °F - 32.2 °F 63% 30.02 in 10.0 mi Calm Calm - N/A   Clear
7:55 AM 45.9 °F - 33.8 °F 63% 30.02 in 10.0 mi Calm Calm - N/A   Clear
8:16 AM 49.8 °F - 34.2 °F 55% 30.02 in 10.0 mi Calm Calm - N/A   Clear
8:36 AM 51.6 °F - 34.9 °F 53% 30.02 in 10.0 mi South 4.6 mph - N/A   Clear
8:55 AM 53.6 °F - 35.6 °F 51% 30.02 in 10.0 mi South 5.8 mph - N/A   Clear
9:16 AM 55.9 °F - 33.4 °F 43% 30.01 in 10.0 mi South 5.8 mph - N/A   Clear
9:35 AM 58.3 °F - 33.4 °F 39% 30.01 in 10.0 mi SSE 3.5 mph - N/A   Clear
9:55 AM 59.2 °F - 32.7 °F 37% 30.00 in 10.0 mi SSE 3.5 mph - N/A   Scattered Clouds
10:16 AM 59.9 °F - 31.6 °F 34% 29.99 in 10.0 mi SSE 8.1 mph - N/A   Scattered Clouds
10:35 AM 61.9 °F - 30.9 °F 31% 29.98 in 10.0 mi South 10.4 mph - N/A   Scattered Clouds
10:56 AM 64.8 °F - 28.8 °F 26% 29.97 in 10.0 mi South 12.7 mph 18.4 mph N/A   Scattered Clouds
11:16 AM 66.2 °F - 26.8 °F 23% 29.96 in 10.0 mi South 13.8 mph 20.7 mph N/A   Scattered Clouds
11:35 AM 67.3 °F - 25.0 °F 20% 29.96 in 10.0 mi South 17.3 mph 25.3 mph N/A   Scattered Clouds
11:56 AM 66.0 °F - 24.6 °F 21% 29.96 in 10.0 mi South 13.8 mph 25.3 mph N/A   Mostly Cloudy
12:15 PM 65.5 °F - 27.5 °F 24% 29.95 in 10.0 mi South 11.5 mph 19.6 mph N/A   Mostly Cloudy
12:36 PM 65.8 °F - 26.4 °F 23% 29.94 in 10.0 mi South 13.8 mph 19.6 mph N/A   Mostly Cloudy
12:56 PM 65.7 °F - 29.1 °F 25% 29.93 in 10.0 mi South 6.9 mph 17.3 mph N/A   Overcast
1:15 PM 64.8 °F - 33.8 °F 32% 29.93 in 10.0 mi South 9.2 mph - N/A Rain Light Rain
1:36 PM 62.2 °F - 39.2 °F 43% 29.93 in 10.0 mi South 5.8 mph - N/A Rain Light Rain
1:56 PM 63.3 °F - 38.1 °F 39% 29.92 in 10.0 mi SSE 5.8 mph - N/A Rain Light Rain
2:16 PM 61.5 °F - 43.0 °F 51% 29.92 in 7.0 mi ENE 3.5 mph - N/A Rain Rain
2:36 PM 58.6 °F - 47.7 °F 67% 29.87 in 10.0 mi East 8.1 mph - N/A Rain Light Rain
2:55 PM 61.0 °F - 47.7 °F 62% 29.86 in 10.0 mi ESE 8.1 mph - N/A   Mostly Cloudy
3:16 PM 63.5 °F - 46.6 °F 54% 29.85 in 10.0 mi ESE 5.8 mph - N/A   Mostly Cloudy
3:36 PM 66.7 °F - 46.4 °F 48% 29.82 in 10.0 mi SE 9.2 mph - N/A   Mostly Cloudy
3:55 PM 67.8 °F - 46.9 °F 47% 29.81 in 10.0 mi SSE 9.2 mph 17.3 mph N/A   Overcast
4:16 PM 69.4 °F - 47.3 °F 45% 29.80 in 10.0 mi SSE 12.7 mph 17.3 mph N/A   Mostly Cloudy
4:36 PM 70.2 °F - 48.6 °F 46% 29.79 in 10.0 mi SSE 11.5 mph 17.3 mph N/A   Mostly Cloudy
4:55 PM 71.1 °F - 50.0 °F 47% 29.77 in 10.0 mi SSE 11.5 mph 20.7 mph N/A   Overcast
5:16 PM 71.6 °F - 51.1 °F 48% 29.75 in 10.0 mi South 16.1 mph 21.9 mph N/A   Overcast
5:35 PM 71.8 °F - 51.8 °F 49% 29.73 in 10.0 mi South 16.1 mph 25.3 mph N/A   Mostly Cloudy
5:56 PM 73.4 °F - 51.8 °F 47% 29.73 in 10.0 mi South 10.4 mph 19.6 mph N/A   Mostly Cloudy
6:16 PM 73.2 °F - 51.4 °F 46% 29.72 in 10.0 mi South 17.3 mph 28.8 mph N/A   Overcast
6:35 PM 74.8 °F - 50.9 °F 43% 29.72 in 10.0 mi South 12.7 mph 24.2 mph N/A   Overcast
6:56 PM 74.7 °F - 50.5 °F 43% 29.73 in 10.0 mi SW 17.3 mph 29.9 mph N/A   Overcast
7:15 PM 74.3 °F - 50.2 °F 43% 29.74 in 10.0 mi SW 11.5 mph 17.3 mph N/A   Overcast
7:36 PM 74.3 °F - 49.3 °F 41% 29.75 in 10.0 mi SW 17.3 mph 23.0 mph N/A   Overcast
7:56 PM 72.0 °F - 49.3 °F 45% 29.77 in 10.0 mi SW 10.4 mph - N/A   Overcast
8:15 PM 72.0 °F - 48.7 °F 44% 29.77 in 10.0 mi SW 11.5 mph 17.3 mph N/A   Overcast
8:36 PM 71.6 °F - 49.8 °F 46% 29.77 in 10.0 mi SSW 10.4 mph 20.7 mph N/A   Overcast
8:55 PM 72.1 °F - 50.5 °F 46% 29.78 in 10.0 mi SSW 9.2 mph 20.7 mph N/A   Overcast
9:15 PM 72.0 °F - 50.9 °F 47% 29.77 in 10.0 mi SSW 8.1 mph - N/A   Overcast
9:36 PM 72.1 °F - 50.9 °F 47% 29.78 in 10.0 mi SSW 8.1 mph 19.6 mph N/A   Overcast
9:55 PM 72.0 °F - 50.9 °F 47% 29.77 in 10.0 mi SSW 11.5 mph 19.6 mph N/A   Overcast
10:16 PM 71.2 °F - 50.9 °F 49% 29.76 in 10.0 mi SSW 12.7 mph 18.4 mph N/A   Scattered Clouds
10:36 PM 70.5 °F - 50.9 °F 50% 29.76 in 10.0 mi SSW 10.4 mph 17.3 mph N/A   Clear
10:55 PM 69.8 °F - 50.9 °F 51% 29.76 in 10.0 mi SSW 11.5 mph 16.1 mph N/A   Clear
11:16 PM 69.6 °F - 50.9 °F 51% 29.76 in 10.0 mi SSW 8.1 mph - N/A   Scattered Clouds
11:35 PM 69.1 °F - 50.9 °F 52% 29.76 in 10.0 mi ENE 5.8 mph - N/A   Overcast
11:56 PM 59.7 °F - 47.7 °F 64% 29.76 in 10.0 mi NE 8.1 mph - N/A   Overcast